STARLINK-31093 (58717 NORAD) Tracking and Keplerian Element Data

This shows tracking and keplerian element data for the satellite.

Feedback or suggestion? Click here.




ElementValue
Catalog58717
NameSTARLINK-31093
Epoch Orbit265
Epoch Day13.25002315
Epoch Year2024
RAAN198.7772
Inclination53.1607
Eccentricity0.00012
Argument of Perigee104.3727
Mean Anonmoly135.3354
Mean Motion15.51441545
Decay Rate-0.01744777
L11 58717U 24002N 24013.25002315 -.01744777 00000+0 -32639-1 0 9996
L22 58717 53.1607 198.7772 0001200 104.3727 135.3354 15.51441545 2652



Live tracking and technical data element details for STARLINK-31093 (NORAD 58717). STARLINK-31093 can be tracked NOW for your location showing map with azimuth and elevation plus other details from your city location.







IsCatalogInMostPopularTable: catalog: 58717, numindb: 27
Update: records affected: 1



GetName: 58717 STARLINK-31093

Hit Count: updated at: Wed, 17 Apr 2024 03:07:15 GMT